Oakdale, LA

9:04 AM CDT on April 30, 2017 (GMT -0500)
Oakdale

Weather History for KACP - April, 2012

Change the Weather History Date:

Thursday, April 12, 2012

  Actual Average (KPOE) Record (KPOE)
Temperature  
Mean Temperature 68 °F -  
Max Temperature 77 °F 73 °F 86 °F (2001)
Min Temperature 59 °F 54 °F 42 °F (2013)
Cooling Degree Days 3    
Growing Degree Days 18 (Base 50)    
Moisture  
Dew Point 59 °F    
Average Humidity 75    
Maximum Humidity 100    
Minimum Humidity 46    
Precipitation  
Precipitation 0.00 in - - ()
Sea Level Pressure  
Sea Level Pressure 30.10 in    
Wind  
Wind Speed 3 mph (East)    
Max Wind Speed 8 mph    
Max Gust Speed -    
Visibility 10 miles    
Events      
Averages and records for this station are not official NWS values.
T = Trace of Precipitation, MM = Missing Value Source: NWS Daily Summary

Daily Weather History Graph

Daily Weather History Graph

Search for Another Location

Airport or City:

Trip Planner

Search our weather history database for the weather conditions in past years. The results will help you decide how hot, cold, wet, or windy it might be!

Date:

Astronomy

Apr. 12, 2012 Rise Set
Actual Time 6:46 AM CDT 7:37 PM CDT
Civil Twilight 6:21 AM CDT 8:01 PM CDT
Nautical Twilight 5:52 AM CDT 8:30 PM CDT
Astronomical Twilight 5:22 AM CDT 9:00 PM CDT
Moon 1:11 AM CDT (4/12) 11:53 AM CDT (4/12)
Length of Visible Light 13h 40m
Length of Day
12h 51m
Waning Gibbous, 58% of the Moon is Illuminated
Apr 12
Waning Gibbous
Apr 13
Last Quarter
Apr 21
New
Apr 29
First Quarter
May 5
Full

Hourly Weather History & Observations

Time (CDT) Temp. Dew Point Humidity Pressure Visibility Wind Dir Wind Speed Gust Speed Precip Events Conditions
12:15 AM 66.2 °F 57.2 °F 73% 30.10 in 10.0 mi NNE 4.6 mph - N/A   Overcast
12:35 AM 66.2 °F 57.2 °F 73% 30.10 in 10.0 mi NNE 3.5 mph - N/A   Overcast
12:55 AM 66.2 °F 57.2 °F 73% 30.10 in 10.0 mi Calm Calm - N/A   Overcast
1:15 AM 66.2 °F 57.2 °F 73% 30.10 in 10.0 mi NE 3.5 mph - N/A   Overcast
1:35 AM 66.2 °F 57.2 °F 73% 30.11 in 10.0 mi Calm Calm - N/A   Overcast
2:15 AM 66.2 °F 57.2 °F 73% 30.10 in 10.0 mi Calm Calm - N/A   Overcast
2:35 AM 64.4 °F 57.2 °F 77% 30.10 in 10.0 mi NE 4.6 mph - N/A   Overcast
2:55 AM 64.4 °F 55.4 °F 73% 30.10 in 10.0 mi NE 4.6 mph - N/A   Overcast
3:15 AM 64.4 °F 55.4 °F 73% 30.10 in 10.0 mi ENE 4.6 mph - N/A   Overcast
3:55 AM 62.6 °F 57.2 °F 82% 30.10 in 10.0 mi Calm Calm - N/A   Scattered Clouds
4:15 AM 62.6 °F 60.8 °F 94% 30.10 in 10.0 mi Calm Calm - N/A   Mostly Cloudy
4:35 AM 62.6 °F 62.6 °F 100% 30.10 in 10.0 mi ENE 3.5 mph - N/A   Overcast
4:55 AM 62.6 °F 62.6 °F 100% 30.10 in 10.0 mi NE 4.6 mph - N/A   Overcast
5:55 AM 60.8 °F 60.8 °F 100% 30.11 in 10.0 mi Calm Calm - N/A   Clear
6:15 AM 59.0 °F 59.0 °F 100% 30.12 in 10.0 mi Calm Calm - N/A   Clear
6:35 AM 59.0 °F 59.0 °F 100% 30.13 in 10.0 mi Calm Calm - N/A   Clear
6:55 AM 59.0 °F 59.0 °F 100% 30.13 in 10.0 mi Calm Calm - N/A   Clear
7:15 AM 59.0 °F 59.0 °F 100% 30.13 in 10.0 mi Calm Calm - N/A   Clear
7:35 AM 59.0 °F 59.0 °F 100% 30.13 in 10.0 mi Calm Calm - N/A   Clear
7:55 AM 60.8 °F 60.8 °F 100% 30.14 in 10.0 mi ENE 3.5 mph - N/A   Scattered Clouds
8:15 AM 62.6 °F 60.8 °F 94% 30.14 in 10.0 mi ENE 4.6 mph - N/A   Mostly Cloudy
8:35 AM 62.6 °F 53.6 °F 72% 30.14 in 10.0 mi East 4.6 mph - N/A   Overcast
8:55 AM 64.4 °F 51.8 °F 64% 30.14 in 10.0 mi East 8.1 mph - N/A   Overcast
9:15 AM 64.4 °F 51.8 °F 64% 30.14 in 10.0 mi East 4.6 mph - N/A   Overcast
9:35 AM 66.2 °F 51.8 °F 60% 30.14 in 10.0 mi East 6.9 mph - N/A   Mostly Cloudy
9:55 AM 68.0 °F 51.8 °F 56% 30.14 in 10.0 mi East 6.9 mph - N/A   Mostly Cloudy
10:15 AM 69.8 °F 51.8 °F 53% 30.15 in 10.0 mi East 5.8 mph - N/A   Scattered Clouds
10:35 AM 69.8 °F 50.0 °F 49% 30.15 in 10.0 mi East 5.8 mph - N/A   Clear
10:55 AM 71.6 °F 50.0 °F 46% 30.15 in 10.0 mi ESE 5.8 mph - N/A   Clear
11:35 AM 71.6 °F 51.8 °F 50% 30.15 in 10.0 mi ENE 5.8 mph - N/A   Clear
11:55 AM 71.6 °F 51.8 °F 50% 30.15 in 10.0 mi East 4.6 mph - N/A   Clear
12:15 PM 73.4 °F 53.6 °F 50% 30.15 in 10.0 mi East 3.5 mph - N/A   Clear
12:35 PM 73.4 °F 53.6 °F 50% 30.14 in 10.0 mi ESE 4.6 mph - N/A   Mostly Cloudy
1:15 PM 73.4 °F 53.6 °F 50% 30.13 in 10.0 mi East 4.6 mph - N/A   Clear
1:55 PM 75.2 °F 55.4 °F 50% 30.12 in 10.0 mi East 3.5 mph - N/A   Clear
2:15 PM 75.2 °F 55.4 °F 50% 30.11 in 10.0 mi Calm Calm - N/A   Clear
3:15 PM 77.0 °F 57.2 °F 50% 30.09 in 10.0 mi ESE 5.8 mph - N/A   Clear
4:15 PM 77.0 °F 57.2 °F 50% 30.07 in 10.0 mi ESE 4.6 mph - N/A   Clear
4:35 PM 77.0 °F 57.2 °F 50% 30.06 in 10.0 mi East 4.6 mph - N/A   Clear
4:55 PM 77.0 °F 57.2 °F 50% 30.06 in 10.0 mi East 4.6 mph - N/A   Clear
5:15 PM 77.0 °F 57.2 °F 50% 30.05 in 10.0 mi SE 6.9 mph - N/A   Clear
5:35 PM 77.0 °F 59.0 °F 54% 30.05 in 10.0 mi ESE 3.5 mph - N/A   Scattered Clouds
5:55 PM 77.0 °F 59.0 °F 54% 30.05 in 10.0 mi ESE 4.6 mph - N/A   Scattered Clouds
6:35 PM 75.2 °F 60.8 °F 61% 30.05 in 10.0 mi Calm Calm - N/A   Scattered Clouds
6:55 PM 75.2 °F 62.6 °F 65% 30.05 in 10.0 mi Calm Calm - N/A   Scattered Clouds
7:15 PM 73.4 °F 62.6 °F 69% 30.06 in 10.0 mi Calm Calm - N/A   Clear
7:35 PM 69.8 °F 68.0 °F 94% 30.05 in 10.0 mi Calm Calm - N/A   Scattered Clouds
7:55 PM 69.8 °F 69.8 °F 100% 30.05 in 10.0 mi Calm Calm - N/A   Mostly Cloudy
8:15 PM 69.8 °F 69.8 °F 100% 30.06 in 10.0 mi Calm Calm - N/A   Overcast
8:35 PM 69.8 °F 69.8 °F 100% 30.06 in 10.0 mi Calm Calm - N/A   Overcast
8:55 PM 68.0 °F 68.0 °F 100% 30.06 in 10.0 mi Calm Calm - N/A   Mostly Cloudy
9:15 PM 66.2 °F 66.2 °F 100% 30.07 in 7.0 mi Calm Calm - N/A   Clear
9:35 PM 66.2 °F 66.2 °F 100% 30.07 in 7.0 mi Calm Calm - N/A   Mostly Cloudy
10:15 PM 66.2 °F 66.2 °F 100% 30.08 in 10.0 mi Calm Calm - N/A   Mostly Cloudy
11:15 PM 64.4 °F 64.4 °F 100% 30.07 in 7.0 mi Calm Calm - N/A   Clear
11:35 PM 62.6 °F 62.6 °F 100% 30.07 in 5.0 mi Calm Calm - N/A   Clear
11:55 PM 62.6 °F 62.6 °F 100% 30.07 in 5.0 mi Calm Calm - N/A   Clear